GW7008 Weather Reports


time (UTC)temp
C
wind
direction
speed
KPH
gust
KPH
rain 1hr
cm
rain 24hr
cm
rain mn
cm
humidity
%
barometer
mb
20260509074524 13 30 0.0 0.0 0.00 0.00 0.00 92 1011.6
20260509073022 13 30 0.0 0.0 0.00 0.00 0.00 91 1011.8
20260509071514 13 30 0.0 0.0 0.00 0.00 0.00 91 1011.8
20260509070033 14 30 0.0 3.2 0.00 0.00 0.00 92 1011.8
20260509064530 13 30 0.0 3.2 0.00 0.00 0.00 93 1012.4
20260509063051 13 30 0.0 0.0 0.00 0.00 0.00 93 1012.8
20260509061527 13 30 0.0 0.0 0.00 0.00 0.00 93 1013.1
20260509060021 13 30 0.0 0.0 0.00 0.00 0.00 93 1013.3
20260509054519 13 30 0.0 0.0 0.00 0.00 0.00 92 1013.4
20260509053024 13 30 0.0 3.2 0.00 0.00 0.00 92 1013.2
20260509051525 13 30 0.0 0.0 0.00 0.00 0.00 91 1013.2
20260509050014 13 30 0.0 0.0 0.00 0.00 0.00 90 1013.3
20260509044516 13 30 0.0 0.0 0.00 0.00 0.00 90 1013.3
20260509043020 13 30 0.0 0.0 0.00 0.00 0.00 89 1013.5
20260509041526 14 30 0.0 0.0 0.00 0.00 0.00 88 1013.8
20260509040027 14 30 0.0 0.0 0.00 0.00 0.00 88 1013.9
20260509034514 14 30 0.0 0.0 0.00 0.00 0.00 88 1014.3
20260509033018 15 30 0.0 0.0 0.00 0.00 0.00 88 1014.2
20260509031525 15 30 0.0 0.0 0.00 0.00 0.00 87 1014.4
20260509030026 15 30 0.0 0.0 0.00 0.00 0.00 87 1014.5
20260509024526 15 30 0.0 0.0 0.00 0.00 0.00 87 1014.5
20260509023024 15 30 0.0 0.0 0.00 0.00 0.00 85 1014.5
20260509021524 15 30 0.0 0.0 0.00 0.00 0.00 86 1014.3
20260509020036 15 30 0.0 0.0 0.00 0.00 0.00 85 1014.3
20260509014541 15 30 0.0 0.0 0.00 0.00 0.00 85 1014.3
20260509013037 16 30 0.0 0.0 0.00 0.00 0.00 86 1014.1
20260509011520 16 30 0.0 0.0 0.00 0.00 0.00 84 1014.1
20260509010025 16 30 0.0 0.0 0.00 0.00 0.00 84 1013.8
20260509004528 16 30 0.0 0.0 0.00 0.00 0.00 81 1013.7
20260509003027 16 30 0.0 0.0 0.00 0.00 0.00 81 1013.5
20260509001529 16 30 0.0 0.0 0.00 0.00 0.00 79 1013.8
20260509000022 16 30 0.0 0.0 0.00 0.00 0.00 74 1013.7
20260508234507 17 30 0.0 0.0 0.00 0.00 0.00 79 1013.7
20260508233012 17 30 0.0 0.0 0.00 0.00 0.00 72 1013.8
20260508231514 17 30 0.0 0.0 0.00 0.00 0.00 73 1013.4
20260508230030 17 30 0.0 0.0 0.00 0.00 0.00 70 1013.5
20260508224526 17 30 0.0 1.6 0.00 0.00 0.00 69 1013.6
20260508223016 18 101 0.0 0.0 0.00 0.00 0.00 67 1013.8
20260508221516 18 101 0.0 0.0 0.00 0.00 0.00 67 1013.8
20260508220018 18 102 0.0 3.2 0.00 0.00 0.00 72 1013.7
20260508214522 18 103 0.0 3.2 0.00 0.00 0.00 70 1013.6
20260508213028 18 103 0.0 0.0 0.00 0.00 0.00 73 1013.8
20260508211516 18 103 0.0 3.2 0.00 0.00 0.00 68 1013.6
20260508210018 18 103 0.0 3.2 0.00 0.00 0.00 68 1013.7
20260508204524 19 103 0.0 3.2 0.00 0.00 0.00 65 1013.8
20260508203025 19 103 0.0 3.2 0.00 0.00 0.00 64 1013.9
20260508201533 20 103 0.0 3.2 0.00 0.00 0.00 61 1013.7
20260508200022 20 105 0.0 3.2 0.00 0.00 0.00 63 1014.1
20260508194520 20 301 0.0 3.2 0.00 0.00 0.00 63 1014.6
20260508193024 20 277 1.6 3.2 0.00 0.00 0.00 55 1014.7
20260508191534 20 224 0.0 3.2 0.00 0.00 0.00 61 1014.9
20260508190034 20 143 1.6 3.2 0.00 0.00 0.00 58 1015.1
20260508184504 20 57 0.0 4.8 0.00 0.00 0.00 57 1015.3
20260508183015 21 94 0.0 4.8 0.00 0.00 0.00 56 1015.6
20260508181508 22 82 0.0 3.2 0.00 0.00 0.00 59 1015.5
20260508180016 22 33 0.0 4.8 0.00 0.00 0.00 54 1015.8
20260508174502 21 311 0.0 3.2 0.00 0.00 0.00 57 1016.0
20260508173003 20 37 0.0 3.2 0.00 0.00 0.00 58 1016.1
20260508171510 20 116 1.6 3.2 0.00 0.00 0.00 60 1016.2
20260508170016 20 359 0.0 1.6 0.00 0.00 0.00 58 1016.5
20260508164514 19 135 1.6 3.2 0.00 0.00 0.00 60 1016.7
20260508163005 18 167 1.6 3.2 0.00 0.00 0.00 64 1017.0
20260508161504 18 191 0.0 3.2 0.00 0.00 0.00 66 1017.2
20260508160019 17 124 0.0 3.2 0.00 0.00 0.00 72 1017.5
20260508154512 17 134 1.6 3.2 0.00 0.00 0.00 68 1017.5
20260508153020 16 136 0.0 3.2 0.00 0.00 0.00 71 1017.7
20260508151529 16 129 0.0 3.2 0.00 0.00 0.00 74 1017.9
20260508150010 15 153 0.0 3.2 0.00 0.00 0.00 77 1018.0
20260508144512 15 154 0.0 3.2 0.00 0.00 0.00 77 1017.8
20260508143024 14 154 0.0 3.2 0.00 0.00 0.00 81 1017.8
20260508141531 14 154 1.6 3.2 0.00 0.00 0.00 80 1017.9
20260508140004 13 259 0.0 1.6 0.00 0.00 0.00 83 1017.9
20260508134514 13 263 0.0 3.2 0.00 0.00 0.00 82 1018.0
20260508133028 12 239 0.0 3.2 0.00 0.00 0.00 84 1018.2
20260508131526 12 205 0.0 3.2 0.00 0.03 0.00 87 1018.0
20260508130032 12 162 0.0 0.0 0.00 0.03 0.00 91 1017.9
20260508124530 11 53 0.0 0.0 0.00 0.08 0.00 91 1017.8
20260508123012 11 53 0.0 0.0 0.00 0.13 0.00 93 1017.6
20260508121533 11 53 0.0 0.0 0.00 0.15 0.00 96 1017.3
20260508120032 10 254 0.0 0.0 0.00 0.81 0.00 96 1017.0
20260508114525 10 254 0.0 0.0 0.00 0.97 0.00 96 1016.6
20260508113037 10 254 0.0 0.0 0.00 1.02 0.00 95 1016.5
20260508111514 10 254 0.0 0.0 0.00 1.02 0.00 95 1016.2
20260508110029 10 254 0.0 0.0 0.00 1.04 0.00 94 1016.0
20260508104524 10 254 0.0 0.0 0.00 1.91 0.00 94 1015.7
20260508103027 10 254 0.0 0.0 0.00 2.34 0.00 94 1015.1
20260508101513 10 254 0.0 0.0 0.00 2.36 0.00 93 1015.0
20260508100004 10 254 0.0 0.0 0.00 2.39 0.00 92 1014.9
20260508094504 10 254 0.0 0.0 0.00 2.39 0.00 92 1014.8
20260508093012 10 254 0.0 0.0 0.00 2.39 0.00 90 1014.9
20260508091509 10 254 0.0 0.0 0.00 2.39 0.00 89 1014.5
20260508090033 10 254 0.0 3.2 0.00 2.39 0.00 90 1014.6
20260508084519 10 254 0.0 0.0 0.00 2.39 0.00 90 1014.5
20260508083003 10 254 0.0 0.0 0.00 2.39 0.00 90 1014.1
20260508081509 11 254 0.0 3.2 0.00 2.39 0.00 91 1014.4
20260508080033 11 254 0.0 0.0 0.00 2.41 0.00 91 1014.3